Location: Bouillancy
(49.1149°N, 2.9308°E)
Time: 23:01:31
(UTC+00:00)

Cosmos 2084 - Pass Details

Date: 30 September 2020
Orbit: 566 x 616 km, 62.8° (Epoch: 25 October)

Event Time Altitude Azimuth Distance (km) Brightness Sun altitude
Rises 19:43:54 0° 318° (NW) 2,881 8.1 -22.6°
Reaches altitude 10° 19:46:14 10° 324° (NW) 1,978 6.9 -22.9°
Enters shadow 19:50:26 49° 32° (NNE) 795 4.0 -23.5°
